Tracking 31027 objects as of 19-Jul-2025
HD Live streaming from Space Station
objects crossing your sky now

FREGAT DEB

Track FREGAT DEB now!
10-day predictions


NORAD ID: 45822
Int'l Code: 2011-037BG
Perigee: 525.0 km
Apogee: 2,338.5 km
Inclination: 51.4 °
Period: 114.3 minutes
Semi major axis: 7802 km
RCS: Unknown
Launch date: July 18, 2011
Source: Commonwealth of Independent States (former USSR) (CIS)
Launch site: TYURATAM MISSILE AND SPACE COMPLEX (TTMTR)

Note: This is SATELLITE DEBRIS
Your satellite tracking list
STARLINK-5403
Track 1 satellite(s)




NASA's NSSDC Master Catalog

Two Line Element Set (TLE):
1 45822U 11037BG  25199.51630146  .00009826  00000-0  34243-2 0  9998
2 45822  51.3710 298.2317 1162078 304.5913  45.0589 12.59602363220071
Source of the keplerian elements: AFSPC